Lübeck Blankensee Airport

Jump to: basic info | weather | frequencies | runways | comments

Related pages: nearby airports | nearby navaids | notams | map

Basic information (top)

Codes: LBC EDHL
Location: lon 53.805401, lat 10.719200, elev 53 ft / 16 m msl
Status: medium_airport
Scheduled airline service: yes
Links: Wikipedia Mobile

Weather (top)

Current conditions (rec'd 2014/10/23 18:50Z):

EDHL 231850Z 17003KT CAVOK 11/08 Q1022 RMK ATIS IND

Airport forecast for Hamburg Airport 28nm (52km) WSW (rec'd 2014/10/23 18:29Z):

TAF EDDH 231700Z 2318/2424 20006KT 9999 BKN020 
      TEMPO 2400/2408 BKN012 PROB30 
      TEMPO 2401/2407 4500 -DZ BKN009 PROB30 
      TEMPO 2418/2424 BKN012

Frequencies (top)

Verify before use: may be inaccurate or out of date.

AFIS: 125.1 MHz (BREMEN INFO)
ATIS: 119.925 MHz (ATIS)
GND: 121.775 MHz (GND)
INFO: 128.7 MHz (INFO)
RDR: 124.225 MHz (BREMEN RADAR)
TWR: 128.7 MHz (TWR)

Runways (top)

07/25: 6,896 x 197 ft (2,102 x 60 m) — paved — lighted — threshold 07 displaced 984 ft (300 m)

Latest comments (top)

No comments yet for Lübeck Blankensee Airport

More... (top)

See also NOTAMs and nearby airports and navaids, or visit the Lübeck Blankensee Airport page at the main OurAirports website..